User: anonymous   Login
Location: Lawrence Hall of Science
(37.8785°N, 122.2415°W)
Time: 05:21:29
(UTC-07:00)
Language:

NOSS 3-1 (C) - Orbit

View from above orbital plane
View from above orbital plane
View from above satellite
View from above satellite

Ground track
Ground track

The orbit data is extracted from the following two-line orbital elements,

1 26907U 01040C   15213.35605002 0.00000000  00000-0  00000-0 0    05
2 26907  63.4213 340.5652 0308000 357.2497   2.7502 13.41234825    07
Epoch (UTC): 01 August 2015 08:32:42
Eccentricity: 0.0308000
inclination: 63.4213°
perigee height: 874 km
apogee height: 1335 km
right ascension of ascending node: 340.5652°
argument of perigee: 357.2497°
revolutions per day: 13.41234825
mean anomaly at epoch: 2.7502°
orbit number at epoch: 0

The dashed part of the orbit path shows where the satellite is in the earth's shadow,  

DLR